Location: Cieszkowy
(50.3290°N, 20.5336°E)
Time: 23:14:08
(UTC+00:00)

IDEFIX/ARIANE 42P - Pass Details

Date: 15 June 2024
Orbit: 782 x 800 km, 98.5° (Epoch: 18 July)

Event Time Altitude Azimuth Distance (km) Brightness Sun altitude
Rises 00:02:23 0° 18° (NNE) 3,319 7.8 -14.0°
Reaches altitude 10° 00:04:49 10° 24° (NNE) 2,382 6.5 -13.9°
Maximum altitude 00:09:55 50° 99° (E) 1,013 3.2 -13.6°
Enters shadow 00:14:10 15° 172° (S) 2,055 4.2 -13.4°
